• Join FlightAware (Why Join?)
  • Login
  • US Flag GB Flag 
10:35 EDT


 

Airport Tracker/Info


-or-


 

Live Flight TrackerFlight Track Log ✈ CTL62 ✈ 04-May-2013 ✈ KPWK - KOSU

Flight Track Log - Related Links

Times and Time Zones

All times are in EDT time to prevent confusion due to time zone crossing. See the CTL62 flight status page for this flight to view local times or setup timezone preferences in your user account.

Time Position Orientation Groundspeed Altitude Reporting Facility
EDT Latitude Longitude Course Direction KTS MPH feet Rate Location/Type
01:33 42.1333 -87.7667 132° Southeast 131 151 1,700  Level Chicago TRACON
01:34 42.1333 -87.7333 90° East 104 120 2,500 840 Climbing Chicago TRACON
01:35 42.1331 -87.7228 92° East 116 133 2,700 900 Climbing Chicago Center
01:35 42.1167 -87.7000 134° Southeast 93 107 3,500 900 Climbing Chicago TRACON
01:36 42.1167 -87.6667 90° East 95 109 4,300 780 Climbing Chicago TRACON
01:37 42.1000 -87.6333 124° Southeast 101 116 5,000 720 Climbing Chicago TRACON
01:38 42.0833 -87.6000 124° Southeast 110 127 5,700 660 Climbing Chicago TRACON
01:39 41.9881 -87.6071 132° Southeast  Level FlightAware Approximate
01:41 42.0508 -87.5308 122° Southeast 100 115 7,400  Level Chicago Center
01:42 42.0367 -87.4983 120° Southeast 101 116 8,100 660 Climbing Chicago Center
01:43 42.0247 -87.4678 118° Southeast 95 109 8,800 420 Climbing Chicago Center
01:44 42.0114 -87.4353 119° Southeast 96 110 9,000  Climbing Chicago Center
01:45 41.9917 -87.3892 120° Southeast 133 153 8,900  Descending Chicago Center
01:46 41.9725 -87.3425 119° Southeast 143 165 9,000  Climbing Chicago Center
01:47 41.9494 -87.2981 125° Southeast 144 166 9,000 -60 Level Chicago Center
01:48 41.9275 -87.2472 120° Southeast 155 178 8,900 -60 Descending Chicago Center
01:49 41.9067 -87.1986 120° Southeast 151 174 8,900  Level Chicago Center
01:50 41.8856 -87.1506 121° Southeast 151 174 8,900  Level Chicago Center
01:51 41.8669 -87.1014 117° Southeast 149 171 9,000  Climbing Chicago Center
01:52 41.8450 -87.0528 121° Southeast 153 176 9,000 60 Level Chicago Center
01:53 41.8269 -87.0025 116° Southeast 152 175 9,200 60 Climbing Chicago Center
01:54 41.8044 -86.9433 117° Southeast 151 174 9,200  Level Chicago Center
01:55 41.7842 -86.8931 118° Southeast 154 177 9,200 -60 Level Chicago Center
01:56 41.7664 -86.8425 115° Southeast 152 175 9,100  Descending Chicago Center
01:57 41.7447 -86.7928 120° Southeast 155 178 9,200  Climbing Chicago Center
01:58 41.7322 -86.7386 107° East 154 177 9,200 -60 Level Chicago Center
01:59 41.7147 -86.6931 117° Southeast 152 175 9,100  Descending Chicago Center
02:00 41.6958 -86.6422 116° Southeast 153 176 9,200  Climbing Chicago Center
02:01 41.6753 -86.5967 121° Southeast 146 168 9,200 -60 Level Chicago Center
02:02 41.6567 -86.5478 117° Southeast 147 169 9,100 -180 Descending Chicago Center
02:03 41.6381 -86.4975 116° Southeast 150 173 8,900  Descending Chicago Center
02:04 41.6153 -86.4533 125° Southeast 145 167 9,200 120 Climbing Chicago Center
02:05 41.5956 -86.4078 120° Southeast 143 165 9,200  Level Chicago Center
02:06 41.5778 -86.3569 115° Southeast 149 171 9,200 -60 Level Chicago Center
02:07 41.5636 -86.3072 111° Southeast 145 167 9,100 -60 Descending Chicago Center
02:08 41.5433 -86.2561 118° Southeast 154 177 9,100 -60 Level Chicago Center
02:09 41.5222 -86.2094 121° Southeast 150 173 9,000 -60 Descending Chicago Center
02:10 41.5117 -86.1572 105° East 149 171 9,000  Level Chicago Center
02:11 41.4931 -86.1081 117° Southeast 149 171 9,100  Climbing Chicago Center
02:12 41.4731 -86.0622 120° Southeast 145 167 9,100  Level Chicago Center
02:13 41.4536 -86.0150 119° Southeast 147 169 9,200  Climbing Chicago Center
02:14 41.4303 -85.9689 124° Southeast 149 171 9,100 -60 Descending Chicago Center
02:15 41.4081 -85.9219 122° Southeast 150 173 9,100 -60 Level Chicago Center
02:16 41.3861 -85.8717 120° Southeast 156 180 9,000  Descending Chicago Center
02:17 41.3653 -85.8239 120° Southeast 152 175 9,100  Climbing Chicago Center
02:18 41.3442 -85.7764 121° Southeast 151 174 9,100 -60 Level Chicago Center
02:19 41.3208 -85.7186 118° Southeast 149 171 9,000  Descending Chicago Center
02:20 41.3022 -85.6692 117° Southeast 151 174 9,100 60 Climbing Chicago Center
02:21 41.2847 -85.6203 115° Southeast 149 171 9,200  Climbing Chicago Center
02:22 41.2636 -85.5736 121° Southeast 147 169 9,100 -120 Descending Chicago Center
02:23 41.2472 -85.5228 113° Southeast 150 173 9,000 -120 Descending Chicago Center
02:24 41.2294 -85.4728 115° Southeast 150 173 8,900  Descending Chicago Center
02:25 41.2133 -85.4231 113° Southeast 149 171 9,000  Climbing Chicago Center
02:26 41.1956 -85.3725 115° Southeast 150 173 9,000  Level Chicago Center
02:27 41.1806 -85.3211 111° Southeast 150 173 9,000 -60 Level Chicago Center
02:28 41.1644 -85.2681 112° Southeast 152 175 8,900  Descending Chicago Center
02:29 41.1517 -85.2153 108° East 152 175 9,000  Climbing Chicago Center
02:30 41.1342 -85.1647 115° Southeast 152 175 8,900  Descending Chicago Center
02:31 41.1156 -85.1161 117° Southeast 151 174 9,000  Climbing Chicago Center
02:32 41.0864 -85.0819 139° Southeast 146 168 9,000  Level Chicago Center
02:33 41.0633 -85.0378 125° Southeast 145 167 9,000  Level Chicago Center
02:34 41.0414 -84.9925 123° Southeast 145 167 9,100  Climbing Chicago Center
02:35 41.0206 -84.9439 120° Southeast 148 170 9,000 -120 Descending Chicago Center
02:36 40.9958 -84.8989 126° Southeast 150 173 8,900  Descending Chicago Center
02:38 40.9411 -84.8183 132° Southeast 149 171 9,100  Climbing Chicago Center
02:40 40.8861 -84.7392 133° Southeast 148 170 9,000 -60 Descending Chicago Center
02:41 40.8600 -84.6964 129° Southeast 149 171 9,000  Level Chicago Center
02:42 40.8386 -84.6500 121° Southeast 148 170 9,100  Climbing Chicago Center
02:43 40.8192 -84.6000 117° Southeast 149 171 9,000 -120 Descending Chicago Center
02:44 40.7956 -84.5528 123° Southeast 152 175 8,900  Descending Chicago Center
02:45 40.7769 -84.5031 116° Southeast 152 175 9,100 120 Climbing Chicago Center
02:46 40.7569 -84.4556 119° Southeast 150 173 9,200  Climbing Chicago Center
02:47 40.7358 -84.4097 121° Southeast 148 170 9,200 -120 Level Chicago Center
02:48 40.7139 -84.3619 121° Southeast 150 173 9,000 -180 Descending Chicago Center
02:48 40.6981 -84.3358 129° Southeast 155 178 9,000  Level Indianapolis Center
02:49 40.6886 -84.3125 118° Southeast 145 167 9,000  Level Indianapolis Center
02:49 40.6747 -84.2858 124° Southeast 148 170 9,000 -120 Level Indianapolis Center
02:50 40.6658 -84.2656 120° Southeast 148 170 8,900  Descending Indianapolis Center
02:50 40.6531 -84.2417 125° Southeast 147 169 9,000 60 Climbing Indianapolis Center
02:51 40.6422 -84.2197 123° Southeast 149 171 9,000  Level Indianapolis Center
02:51 40.6314 -84.1975 123° Southeast 145 167 9,000  Level Indianapolis Center
02:52 40.6206 -84.1747 122° Southeast 145 167 9,000  Level Indianapolis Center
02:53 40.6058 -84.1500 128° Southeast 145 167 9,000  Level Indianapolis Center
02:53 40.5983 -84.1306 117° Southeast 144 166 9,000  Level Indianapolis Center
02:53 40.5858 -84.1089 127° Southeast 146 168 9,000  Level Indianapolis Center
02:54 40.5761 -84.0850 118° Southeast 146 168 9,000  Level Indianapolis Center
02:54 40.5642 -84.0647 128° Southeast 145 167 9,000  Level Indianapolis Center
02:55 40.5533 -84.0397 120° Southeast 147 169 9,000  Level Indianapolis Center
02:55 40.5425 -84.0206 127° Southeast 145 167 9,000  Level Indianapolis Center
02:56 40.5303 -83.9944 122° Southeast 147 169 9,000  Level Indianapolis Center
02:56 40.5189 -83.9736 126° Southeast 150 173 9,000  Level Indianapolis Center
02:57 40.5131 -83.9569 115° Southeast 144 166 9,000  Level Indianapolis Center
02:57 40.4969 -83.9297 128° Southeast 147 169 9,000 60 Level Indianapolis Center
02:58 40.4892 -83.9111 119° Southeast 149 171 9,100 -120 Climbing Indianapolis Center
02:58 40.4711 -83.8825 130° Southeast 146 168 8,900 -240 Descending Indianapolis Center
02:59 40.4664 -83.8658 110° East 148 170 8,900 -300 Level Indianapolis Center
02:59 40.4475 -83.8356 129° Southeast 153 176 8,600 -540 Descending Indianapolis Center
03:00 40.4425 -83.8178 110° East 153 176 8,400 -540 Descending Indianapolis Center
03:00 40.4222 -83.7828 127° Southeast 167 192 8,100 -420 Descending Indianapolis Center
03:01 40.4158 -83.7653 116° Southeast 167 192 8,000 -540 Descending Indianapolis Center
03:02 40.3964 -83.7331 128° Southeast 170 196 7,600 -540 Descending Indianapolis Center
03:02 40.3900 -83.7139 114° Southeast 167 192 7,500 -600 Descending Indianapolis Center
03:03 40.3711 -83.6806 127° Southeast 171 197 7,000 -600 Descending Indianapolis Center
03:03 40.3636 -83.6606 116° Southeast 171 197 6,900 -540 Descending Indianapolis Center
03:04 40.3456 -83.6281 126° Southeast 171 197 6,500 -600 Descending Indianapolis Center
03:04 40.3364 -83.6086 122° Southeast 172 198 6,300 -600 Descending Indianapolis Center
03:05 40.3181 -83.5753 126° Southeast 171 197 5,900 -600 Descending Indianapolis Center
03:05 40.3103 -83.5564 118° Southeast 170 196 5,700 -720 Descending Indianapolis Center
03:06 40.2947 -83.5233 122° Southeast 168 193 5,200 -840 Descending Indianapolis Center
03:06 40.2858 -83.5025 119° Southeast 170 196 4,900 -900 Descending Indianapolis Center
03:06 40.2708 -83.4739 124° Southeast 171 197 4,400 -540 Descending Indianapolis Center
03:07 40.2611 -83.4494 118° Southeast 170 196 4,400  Level Indianapolis Center
03:07 40.2492 -83.4275 125° Southeast 146 168 4,400 60 Level Indianapolis Center
03:08 40.2392 -83.4039 119° Southeast 159 183 4,500 -120 Climbing Indianapolis Center
03:08 40.2275 -83.3811 124° Southeast 140 161 4,300 -420 Descending Indianapolis Center
03:09 40.2189 -83.3611 119° Southeast 146 168 4,100 -600 Descending Indianapolis Center
03:09 40.2033 -83.3372 130° Southeast 150 173 3,700 -720 Descending Indianapolis Center
03:10 40.1942 -83.3153 119° Southeast 147 169 3,400 -840 Descending Indianapolis Center
03:10 40.1794 -83.2906 128° Southeast 154 177 2,900 -420 Descending Indianapolis Center
03:11 40.1692 -83.2675 120° Southeast 149 171 3,000 180 Climbing Indianapolis Center
03:13 40.1346 -83.1996 124° Southeast  Level FlightAware Approximate
03:20 40.0798 -83.0732 123° Southeast  Level Estimated
03:21 40.0798 -83.0732 123° Southeast  Level Estimated